Regional Weather Roundup
Issued by NWS

Home | Current Version | Previous Version | Graphics & Text | Print | Product List | Glossary On
Versions: 1 2 3 4 5 6 7 8 9 10 11 12 13 14 15 16 17 18 19 20 21 22 23 24 25 26 27 28 29 30 31 32 33 34 35 36 37 38 39 40 41 42 43 44 45 46 47 48 49 50
000
ASUS43 KDMX 011107
RWRIA

WEATHER ROUNDUP FOR IOWA
NATIONAL WEATHER SERVICE DES MOINES IA
600 AM CDT WED APR 01 2015

NOTE: "FAIR" INDICATES FEW OR NO CLOUDS BELOW 12,000 FEET WITH NO
SIGNIFICANT WEATHER AND/OR OBSTRUCTIONS TO VISIBILITY.

* - THESE STATIONS ARE NOT NWS STATIONS...THUS NOT UNDER NWS
QUALITY CONTROL.  THEY ALSO DO NOT REPORT WEATHER SUCH
AS PRECIPITATION OR FOG.

IAZ001>003-012>014-020>022-031>034-043>046-011200-
   NORTHWEST IOWA

CITY           SKY/WX    TMP DP  RH WIND       PRES   REMARKS
CARROLL *      CLOUDY    54  32  43 S18G25    29.81S
CHEROKEE *     CLEAR     54  32  43 S16       29.76F
DENISON *      MOCLDY    54  30  40 S20G28    29.78F
LE MARS *      PTCLDY    55  32  41 S15G22    29.73F
ORANGE CITY *  CLEAR     54  30  40 S14       29.73F
SHELDON *      CLOUDY    50  32  50 S16       29.72F
SIOUX CITY     CLEAR     51  32  48 SE10      29.75S
SPENCER        CLEAR     53  33  46 S20       29.75F
STORM LAKE *   CLEAR     52  32  46 S18G24    29.79F
$$

IAZ055>058-069>071-079>083-090>094-011200-
   SOUTHWEST IOWA

CITY           SKY/WX    TMP DP  RH WIND       PRES   REMARKS
ATLANTIC *     MOCLDY    52  32  46 S13       29.84F
AUDUBON *      CLEAR     54  30  40 S13G20    29.84F
CLARINDA *     CLEAR     52  34  50 S7        29.87F
COUNCIL BLFS * MOCLDY    55  34  44 S16       29.81S
CRESTON *      CLEAR     52  34  50 S14       29.87F
HARLAN  *      CLEAR     52  32  46 S12       29.84F
LAMONI         CLEAR     53  34  48 S12       29.90S
RED OAK *      MOCLDY    52  32  46 S10       29.84F
SHENANDOAH *   MOCLDY    52  34  50 SE10      29.84S
$$

IAZ047>049-059>061-072>074-084-011200-
   CENTRAL IOWA

CITY           SKY/WX    TMP DP  RH WIND       PRES   REMARKS
AMES           CLEAR     47  33  58 S8        29.86R
ANKENY *       CLEAR     55  34  44 S10       29.88R
CHARITON *     CLEAR     55  34  44 S18       29.89S
DES MOINES     CLEAR     54  33  45 S8        29.88R
GRINNELL*      CLEAR     48  34  57 S10       29.89S
KNOXVILLE *    CLEAR     54  32  43 S12       29.88R
MARSHALLTOWN   CLEAR     45  32  60 SE8       29.86R
PELLA *        CLEAR     48  37  66 S9        29.90R
PERRY *          N/A     52  36  54 S15       29.84S
$$

IAZ004>006-015-016-023>025-035-036-011200-
   NORTH CENTRAL IOWA

CITY           SKY/WX    TMP DP  RH WIND       PRES   REMARKS
ALGONA *       CLEAR     46  34  61 S15       29.80S
CLARION *      CLEAR     46  34  61 S13       29.83R
ESTHERVILLE    CLEAR     38  31  76 S12       29.76S WCI  30
FORT DODGE *   CLEAR     50  32  50 S12       29.82S
MASON CITY     CLEAR     36  31  82 S5        29.84S WCI  32
FOREST CITY *  CLEAR     37  32  81 SE8       29.82S WCI  31
IOWA FALLS *     N/A     45  34  65 S8        29.86S
$$

IAZ007>011-017>019-026>030-037>042-050>054-066-011200-
   NORTHEAST IOWA

CITY           SKY/WX    TMP DP  RH WIND       PRES   REMARKS
CEDAR RAPIDS   CLEAR     40  31  70 SE6       29.91R
CHARLES CITY * CLEAR     43  32  65 SE12      29.87R
CLINTON *      CLEAR     34  28  80 E7        29.98R WCI  28
DECORAH *      MOCLDY    43  32  65 SE8       29.89S
DUBUQUE        CLEAR     42  31  64 S7        29.94R
MONTICELLO *   CLEAR     32  32 100 CALM      29.94R
OELWEIN *      CLEAR     43  32  65 SE12      29.90S
WATERLOO       CLEAR     42  33  70 SE7       29.87S
$$

IAZ064-065-067-068-078-011200-
   EAST CENTRAL IOWA

CITY           SKY/WX    TMP DP  RH WIND       PRES   REMARKS
DAVENPORT      CLEAR     38  28  67 S6        29.96R WCI  33
IOWA CITY      CLEAR     41  32  70 CALM      29.94R
MT. PLEASANT * CLEAR     45  34  65 S9        29.94R
MUSCATINE *    CLEAR     37  32  81 CALM      29.95R
QUAD CITIES    CLEAR     36  31  82 CALM      29.96R
$$

IAZ062-063-075>077-085>089-095>099-011200-
   SOUTHEAST IOWA

CITY           SKY/WX    TMP DP  RH WIND       PRES   REMARKS
BURLINGTON     CLEAR     47  33  58 S7        29.95R
FAIRFIELD *    CLEAR     48  34  57 S9        29.92R
FORT MADISON * CLEAR     48  36  61 S8        29.96R
KEOKUK *       CLEAR     50  36  57 S9        29.95R
OSKALOOSA *      N/A     43  32  65 S8        29.91R
CENTERVILLE *  CLEAR     50  34  53 S10       29.93S
OTTUMWA        CLEAR     49  33  54 S10       29.91R
WASHINGTON *   CLEAR     45  32  61 S7        29.93R
$$

ABBREVIATIONS USED IN REMARKS
   TC - TEMPERATURES IN CELSIUS
  WCI - WIND CHILL INDEX
   HX - HEAT INDEX
  VSB - VISIBILITY
$$



USA.gov is the U.S. government's official web portal to all federal, state and local government web resources and services.